ASRTU-1 (AO-123)

Last updated on Thu Oct 30 2025 00:03:10 GMT+0000 (Coordinated Universal Time)

1 61781U 24199AY 25302.56442935 .00012346 00000+0 41651-3 0 9993 2 61781 97.3302 168.5261 0016794 57.1931 303.0924 15.30708723 98588
UTC large
Height (km)
Speed (km/s)
/
Latitude / Longitude
Inclination (degrees)
Orbital Period (minutes)
Azimuth
Elevation
Range (km)
Doppler Factor

Next 0 passes for location: London (51.5072 / 0.1276)

Sorry there are no passes over London.